loading
|

DELTA 1 DEB, 1529

Orbit data source: Space-Track

DELTA 1 DEB, 1529 is space debris in LEO originally from a launch on Fri, 02 Jul 1965 UTC launched from the Air Force Eastern Test Range (AFETR). Debris objects in space refer to the collection of defunct objects orbiting the Earth. Examples of debris include non-operational satellites, rocket bodies, and fragments generated from explosions, collisions, or faulty payload assembly.

Loading next visibility...
Loading greatness...
DELTA 1 DEB details
Identifier
1529, 1965-051D
Orbit
LEO
Last TLE update2 days ago
Origin
Flag of USESSA (US)
ManufacturerUnknown
Mission statusUnknown
MissionUnknown
Bus & MotorUnknown
Mass1 kg wet, 1 kg dry
Launch date (UTC)
1965-07-02 (59 years ago)
Launch vehicleUnknown
Launch site
Air Force Eastern Test Range (AFETR)
Object type
Payload
Rocket body
Debris
Radar Cross SectionSmall (<0.1 m²)

Expand to show TLE details & history

TLE from 2 days ago
0 DELTA 1 DEB
1 01529U 65051D   24260.30545676  .00000801  00000-0  36919-3 0  9994
2 01529  99.0706 111.7925 0035237 259.7085 100.0119 14.23741597 64513
Epoch: 2024-09-16T07:19Z
Definitive object data (Epoch: 2024-09-16T07:19:51.464Z)
Latitude0.00004°
Longitude6.09169°
Altitude820.127 km
Speed7.441 km/s
True Right ascension07h 27m 10s
True Declination0° 00' 00"
Sunlit
Object was in daylight at TLE epoch
Predictive object data (real-time)
Latitude73.43126°
Longitude-140.03327°
Altitude847.476 km
Speed7.424 km/s
Apparent Right ascension00h 36m 43s
Apparent Declination24° 36' 11"
Sunlit
Object is in daylight
Predictive observer data (real-time)
Local Sidereal Time13:44:14
Azimuth16.744° NNE
Elevation-23.588°
Doppler factor1
Orbital elements
Apogee835.226 km
Perigee784.569 km
Semi-major axis7,188.035 km
Eccentricity0.0035237
Inclination99.0706°
RAAN111.7925°
Arg. of periapsis259.7085°
True anomaly100.40923°
Mean anomaly100.0119°
Eccentric anomaly100.2106°
Mean motion3.56146 °/min
BSTAR0.00036919
Period101.08 mins
No data available
Other satellites on launch #51 in the year 1965 (1965-07-02 UTC)

DELTA 1 DEB Visibility forecast

Observer location: 39.9160978°, -105.1181434

DELTA 1 DEB is not visible in the next 10 days
Span
Click to sort rows by Start time (UTC) header in descending order
Start Az.
Max El. time (UTC)
Max El. Az.
Max El.
End time (UTC)
End Az.